Time,TemperatureF,DewpointF,PressureIn,WindDirection,WindDirectionDegrees,WindSpeedMPH,WindSpeedGustMPH,Humidity,HourlyPrecipIn,Conditions,Clouds,dailyrainin,SoftwareType,DateUTC
2013-01-19 00:02:00,37.0,31.0,30.38,NNE,16,0.0,9.0,79,0.00,,,0.00,,2013-01-19 06:02:00,
2013-01-19 00:12:00,37.0,31.0,30.38,NNE,16,0.0,9.0,79,0.00,,,0.00,,2013-01-19 06:12:00,
2013-01-19 00:22:00,37.0,31.0,30.38,NNE,16,0.0,9.0,78,0.00,,,0.00,,2013-01-19 06:22:00,
2013-01-19 00:32:00,37.0,31.0,30.38,NNE,16,0.0,0.0,78,0.00,,,0.00,,2013-01-19 06:32:00,
2013-01-19 00:43:00,37.0,31.0,30.38,NNE,16,0.0,0.0,78,0.00,,,0.00,,2013-01-19 06:43:00,
2013-01-19 00:52:00,37.0,31.0,30.38,NNE,16,0.0,0.0,79,0.00,,,0.00,,2013-01-19 06:52:00,
2013-01-19 01:02:00,36.0,30.0,30.38,NNE,16,0.0,0.0,80,0.00,,,0.00,,2013-01-19 07:02:00,
2013-01-19 01:12:00,36.0,30.0,30.38,NNE,16,0.0,0.0,80,0.00,,,0.00,,2013-01-19 07:12:00,
2013-01-19 01:22:00,35.0,30.0,30.38,NNE,16,0.0,0.0,81,0.00,,,0.00,,2013-01-19 07:22:00,
2013-01-19 01:32:00,35.0,30.0,30.38,NNE,16,0.0,0.0,82,0.00,,,0.00,,2013-01-19 07:32:00,
2013-01-19 01:42:00,35.0,30.0,30.38,NNE,16,0.0,0.0,82,0.00,,,0.00,,2013-01-19 07:42:00,
2013-01-19 01:52:00,35.0,30.0,30.38,NNE,16,0.0,0.0,82,0.00,,,0.00,,2013-01-19 07:52:00,
2013-01-19 02:02:00,35.0,30.0,30.38,NNE,16,0.0,0.0,83,0.00,,,0.00,,2013-01-19 08:02:00,
2013-01-19 02:12:00,35.0,30.0,30.38,NNE,16,0.0,0.0,83,0.00,,,0.00,,2013-01-19 08:12:00,
2013-01-19 02:22:00,35.0,30.0,30.38,NNE,16,0.0,0.0,83,0.00,,,0.00,,2013-01-19 08:22:00,
2013-01-19 02:32:00,35.0,30.0,30.38,NNE,16,0.0,0.0,83,0.00,,,0.00,,2013-01-19 08:32:00,
2013-01-19 02:42:00,35.0,30.0,30.38,NNE,16,0.0,0.0,83,0.00,,,0.00,,2013-01-19 08:42:00,
2013-01-19 02:52:00,35.0,30.0,30.38,NNE,16,0.0,0.0,82,0.00,,,0.00,,2013-01-19 08:52:00,
2013-01-19 03:02:00,35.0,30.0,30.37,NNE,16,0.0,0.0,82,0.00,,,0.00,,2013-01-19 09:02:00,
2013-01-19 03:12:00,35.0,30.0,30.37,NNE,16,0.0,0.0,82,0.00,,,0.00,,2013-01-19 09:12:00,
2013-01-19 03:22:00,35.0,30.0,30.37,NNE,16,0.0,0.0,83,0.00,,,0.00,,2013-01-19 09:22:00,
2013-01-19 03:32:00,35.0,30.0,30.37,NNE,16,0.0,0.0,83,0.00,,,0.00,,2013-01-19 09:32:00,
2013-01-19 03:42:00,35.0,30.0,30.37,NNE,16,0.0,0.0,83,0.00,,,0.00,,2013-01-19 09:42:00,
2013-01-19 03:53:00,35.0,30.0,30.36,NNE,16,0.0,0.0,83,0.00,,,0.00,,2013-01-19 09:53:00,
2013-01-19 04:02:00,35.0,30.0,30.36,NNE,16,0.0,0.0,83,0.00,,,0.00,,2013-01-19 10:02:00,
2013-01-19 04:12:00,35.0,31.0,30.36,NNE,16,0.0,0.0,84,0.00,,,0.00,,2013-01-19 10:12:00,
2013-01-19 04:22:00,35.0,31.0,30.36,NNE,16,0.0,0.0,84,0.00,,,0.00,,2013-01-19 10:22:00,
2013-01-19 04:32:00,34.0,30.0,30.36,NNE,16,0.0,0.0,85,0.00,,,0.00,,2013-01-19 10:32:00,
2013-01-19 04:42:00,34.0,30.0,30.36,NNE,16,0.0,0.0,85,0.00,,,0.00,,2013-01-19 10:42:00,
2013-01-19 04:52:00,33.0,29.0,30.37,NNE,16,0.0,0.0,86,0.00,,,0.00,,2013-01-19 10:52:00,
2013-01-19 05:03:00,33.0,29.0,30.36,NNE,16,0.0,0.0,86,0.00,,,0.00,,2013-01-19 11:03:00,
2013-01-19 05:12:00,33.0,29.0,30.36,NNE,16,0.0,0.0,86,0.00,,,0.00,,2013-01-19 11:12:00,
2013-01-19 06:48:00,32.0,29.0,30.37,NNE,16,0.0,0.0,88,0.00,,,0.00,,2013-01-19 12:48:00,
2013-01-19 06:52:00,32.0,29.0,30.37,NNE,16,0.0,0.0,88,0.00,,,0.00,,2013-01-19 12:52:00,
2013-01-19 07:03:00,31.0,28.0,30.37,NNE,16,0.0,0.0,88,0.00,,,0.00,,2013-01-19 13:03:00,
2013-01-19 07:12:00,31.0,28.0,30.37,NNE,16,0.0,0.0,88,0.00,,,0.00,,2013-01-19 13:12:00,
2013-01-19 07:22:00,31.0,28.0,30.37,NNE,16,0.0,0.0,89,0.00,,,0.00,,2013-01-19 13:22:00,
2013-01-19 07:33:00,31.0,28.0,30.37,NNE,16,0.0,0.0,90,0.00,,,0.00,,2013-01-19 13:33:00,
2013-01-19 07:42:00,31.0,28.0,30.37,NNE,16,0.0,0.0,90,0.00,,,0.00,,2013-01-19 13:42:00,
2013-01-19 07:53:00,31.0,28.0,30.37,NNE,16,0.0,0.0,90,0.00,,,0.00,,2013-01-19 13:53:00,
2013-01-19 08:02:00,32.0,30.0,30.38,NNE,16,0.0,0.0,91,0.00,,,0.00,,2013-01-19 14:02:00,
2013-01-19 08:12:00,32.0,30.0,30.38,NNE,16,0.0,0.0,91,0.00,,,0.00,,2013-01-19 14:12:00,
2013-01-19 08:23:00,33.0,31.0,30.37,NNE,16,0.0,0.0,91,0.00,,,0.00,,2013-01-19 14:23:00,
2013-01-19 08:33:00,35.0,33.0,30.37,NNE,16,0.0,0.0,93,0.00,,,0.00,,2013-01-19 14:33:00,
2013-01-19 08:42:00,35.0,33.0,30.37,NNE,16,0.0,0.0,93,0.00,,,0.00,,2013-01-19 14:42:00,
2013-01-19 08:53:00,37.0,35.0,30.38,NNE,16,0.0,0.0,92,0.01,,,0.01,,2013-01-19 14:53:00,
2013-01-19 09:03:00,39.0,37.0,30.38,NNE,16,0.0,0.0,93,0.01,,,0.01,,2013-01-19 15:03:00,
2013-01-19 09:12:00,39.0,37.0,30.38,NNE,16,0.0,0.0,93,0.01,,,0.01,,2013-01-19 15:12:00,
2013-01-19 09:23:00,43.0,39.0,30.38,NNE,16,0.0,1.0,87,0.01,,,0.01,,2013-01-19 15:23:00,
2013-01-19 09:33:00,47.0,41.0,30.38,SSW,213,0.0,4.0,79,0.01,,,0.01,,2013-01-19 15:33:00,
2013-01-19 09:43:00,47.0,41.0,30.38,SSW,213,0.0,4.0,79,0.01,,,0.01,,2013-01-19 15:43:00,
2013-01-19 09:53:00,48.0,40.0,30.38,SSW,213,0.0,4.0,75,0.01,,,0.01,,2013-01-19 15:53:00,
2013-01-19 10:03:00,49.0,40.0,30.38,SSE,168,0.0,4.0,70,0.00,,,0.01,,2013-01-19 16:03:00,
2013-01-19 10:12:00,49.0,40.0,30.38,SSE,168,0.0,4.0,70,0.00,,,0.01,,2013-01-19 16:12:00,
2013-01-19 10:23:00,51.0,39.0,30.38,South,170,0.0,6.0,64,0.00,,,0.01,,2013-01-19 16:23:00,
2013-01-19 10:33:00,52.0,40.0,30.37,SSW,203,0.0,6.0,63,0.00,,,0.01,,2013-01-19 16:33:00,
2013-01-19 10:43:00,52.0,40.0,30.37,SSW,203,0.0,6.0,63,0.00,,,0.01,,2013-01-19 16:43:00,
2013-01-19 10:53:00,54.0,40.0,30.37,South,170,0.0,6.0,60,0.00,,,0.01,,2013-01-19 16:53:00,
2013-01-19 11:02:00,54.0,40.0,30.36,WSW,255,1.0,6.0,58,0.00,,,0.01,,2013-01-19 17:02:00,
2013-01-19 11:17:00,54.0,40.0,30.36,WSW,255,1.0,6.0,58,0.00,,,0.01,,2013-01-19 17:17:00,
2013-01-19 11:28:00,55.0,39.0,30.35,SSW,205,0.0,6.0,55,0.00,,,0.01,,2013-01-19 17:28:00,
2013-01-19 11:34:00,56.0,39.0,30.35,WSW,242,2.0,6.0,53,0.00,,,0.01,,2013-01-19 17:34:00,
2013-01-19 11:54:00,57.0,41.0,30.33,South,186,1.0,6.0,54,0.00,,,0.01,,2013-01-19 17:54:00,
2013-01-19 12:08:00,57.0,41.0,30.33,SW,221,1.0,6.0,55,0.00,,,0.01,,2013-01-19 18:08:00,
2013-01-19 12:13:00,57.0,41.0,30.33,SW,221,1.0,6.0,55,0.00,,,0.01,,2013-01-19 18:13:00,
2013-01-19 12:25:00,57.0,41.0,30.31,South,185,0.0,6.0,56,0.00,,,0.01,,2013-01-19 18:25:00,
2013-01-19 12:34:00,57.0,41.0,30.30,WSW,249,3.0,8.0,56,0.00,,,0.01,,2013-01-19 18:34:00,
2013-01-19 13:08:00,59.0,42.0,30.28,West,270,2.0,9.0,54,0.00,,,0.01,,2013-01-19 19:08:00,
2013-01-19 13:18:00,59.0,42.0,30.28,West,270,2.0,9.0,54,0.00,,,0.01,,2013-01-19 19:18:00,
2013-01-19 13:28:00,59.0,44.0,30.27,SSW,192,0.0,9.0,57,0.00,,,0.01,,2013-01-19 19:28:00,
2013-01-19 13:38:00,59.0,42.0,30.27,SW,217,2.0,9.0,54,0.00,,,0.01,,2013-01-19 19:38:00,
2013-01-19 13:45:00,59.0,42.0,30.27,SW,217,2.0,9.0,54,0.00,,,0.01,,2013-01-19 19:45:00,
2013-01-19 13:56:00,59.0,42.0,30.27,SSW,201,2.0,9.0,53,0.00,,,0.01,,2013-01-19 19:56:00,
2013-01-19 14:09:00,59.0,43.0,30.26,West,280,0.0,9.0,55,0.00,,,0.01,,2013-01-19 20:09:00,
2013-01-19 14:24:00,60.0,42.0,30.25,SSW,197,0.0,9.0,52,0.00,,,0.01,,2013-01-19 20:24:00,
2013-01-19 14:37:00,61.0,43.0,30.25,SSE,152,0.0,9.0,51,0.00,,,0.01,,2013-01-19 20:37:00,
2013-01-19 14:45:00,61.0,43.0,30.25,SSE,152,0.0,9.0,51,0.00,,,0.01,,2013-01-19 20:45:00,
2013-01-19 14:54:00,61.0,43.0,30.24,South,186,1.0,9.0,51,0.00,,,0.01,,2013-01-19 20:54:00,
2013-01-19 15:06:00,61.0,42.0,30.24,WNW,295,2.0,9.0,49,0.00,,,0.01,,2013-01-19 21:06:00,
2013-01-19 15:14:00,61.0,42.0,30.24,WNW,295,2.0,9.0,49,0.00,,,0.01,,2013-01-19 21:14:00,
2013-01-19 15:25:00,61.0,42.0,30.24,SSW,204,1.0,9.0,50,0.00,,,0.01,,2013-01-19 21:25:00,
2013-01-19 15:40:00,61.0,42.0,30.24,SSW,205,1.0,9.0,49,0.00,,,0.01,,2013-01-19 21:40:00,
2013-01-19 15:49:00,61.0,42.0,30.24,SSW,205,1.0,9.0,49,0.00,,,0.01,,2013-01-19 21:49:00,
2013-01-19 15:59:00,61.0,42.0,30.24,SW,230,1.0,9.0,49,0.00,,,0.01,,2013-01-19 21:59:00,
2013-01-19 16:10:00,61.0,42.0,30.23,SSW,208,1.0,9.0,49,0.00,,,0.01,,2013-01-19 22:10:00,
2013-01-19 16:16:00,61.0,42.0,30.23,SSW,208,1.0,9.0,49,0.00,,,0.01,,2013-01-19 22:16:00,
2013-01-19 16:25:00,60.0,42.0,30.23,WSW,240,1.0,9.0,51,0.00,,,0.01,,2013-01-19 22:25:00,
2013-01-19 16:34:00,60.0,42.0,30.23,West,260,0.0,9.0,51,0.00,,,0.01,,2013-01-19 22:34:00,
2013-01-19 16:45:00,60.0,42.0,30.23,West,260,0.0,9.0,51,0.00,,,0.01,,2013-01-19 22:45:00,
2013-01-19 16:54:00,59.0,42.0,30.24,West,260,0.0,9.0,53,0.00,,,0.01,,2013-01-19 22:54:00,
2013-01-19 17:13:00,58.0,41.0,30.24,West,260,0.0,9.0,54,0.00,,,0.01,,2013-01-19 23:13:00,
2013-01-19 17:25:00,58.0,42.0,30.24,West,260,0.0,9.0,55,0.00,,,0.01,,2013-01-19 23:25:00,
2013-01-19 17:34:00,56.0,41.0,30.23,West,260,0.0,9.0,57,0.00,,,0.01,,2013-01-19 23:34:00,
2013-01-19 17:45:00,56.0,41.0,30.23,West,260,0.0,9.0,57,0.00,,,0.01,,2013-01-19 23:45:00,
2013-01-19 18:06:00,55.0,41.0,30.24,West,260,0.0,9.0,59,0.00,,,0.01,,2013-01-20 00:06:00,
2013-01-19 18:15:00,54.0,41.0,30.24,West,260,0.0,9.0,61,0.00,,,0.01,,2013-01-20 00:15:00,
2013-01-19 18:25:00,52.0,40.0,30.24,West,260,0.0,9.0,64,0.00,,,0.01,,2013-01-20 00:25:00,
2013-01-19 18:35:00,51.0,40.0,30.24,West,260,0.0,9.0,67,0.00,,,0.01,,2013-01-20 00:35:00,
2013-01-19 18:45:00,51.0,40.0,30.24,West,260,0.0,9.0,67,0.00,,,0.01,,2013-01-20 00:45:00,
2013-01-19 18:53:00,50.0,40.0,30.25,West,260,0.0,9.0,68,0.00,,,0.01,,2013-01-20 00:53:00,
2013-01-19 19:04:00,49.0,40.0,30.25,West,260,0.0,9.0,71,0.00,,,0.01,,2013-01-20 01:04:00,
2013-01-19 19:18:00,49.0,40.0,30.25,West,260,0.0,9.0,71,0.00,,,0.01,,2013-01-20 01:18:00,
2013-01-19 19:25:00,47.0,39.0,30.24,West,260,0.0,9.0,75,0.00,,,0.01,,2013-01-20 01:25:00,
2013-01-19 19:35:00,47.0,39.0,30.25,West,260,0.0,9.0,74,0.00,,,0.01,,2013-01-20 01:35:00,
2013-01-19 19:45:00,47.0,39.0,30.25,West,260,0.0,9.0,74,0.00,,,0.01,,2013-01-20 01:45:00,
2013-01-19 20:03:00,46.0,39.0,30.25,West,260,0.0,9.0,76,0.00,,,0.01,,2013-01-20 02:03:00,
2013-01-19 20:14:00,46.0,39.0,30.26,West,260,0.0,9.0,77,0.00,,,0.01,,2013-01-20 02:14:00,
2013-01-19 20:25:00,45.0,39.0,30.26,West,260,0.0,9.0,78,0.00,,,0.01,,2013-01-20 02:25:00,
2013-01-19 20:35:00,45.0,40.0,30.25,West,260,0.0,9.0,81,0.00,,,0.01,,2013-01-20 02:35:00,
2013-01-19 20:44:00,45.0,40.0,30.25,West,260,0.0,9.0,81,0.00,,,0.01,,2013-01-20 02:44:00,
2013-01-19 20:55:00,44.0,39.0,30.25,West,260,0.0,9.0,82,0.00,,,0.01,,2013-01-20 02:55:00,
2013-01-19 21:08:00,44.0,39.0,30.24,West,260,0.0,9.0,83,0.00,,,0.01,,2013-01-20 03:08:00,
2013-01-19 21:14:00,44.0,39.0,30.24,West,260,0.0,9.0,83,0.00,,,0.01,,2013-01-20 03:14:00,
2013-01-19 21:24:00,43.0,38.0,30.24,West,260,0.0,9.0,83,0.00,,,0.01,,2013-01-20 03:24:00,
2013-01-19 21:37:00,43.0,38.0,30.24,West,260,0.0,9.0,84,0.00,,,0.01,,2013-01-20 03:37:00,
2013-01-19 21:45:00,43.0,38.0,30.24,West,260,0.0,9.0,84,0.00,,,0.01,,2013-01-20 03:45:00,
2013-01-19 21:57:00,43.0,39.0,30.24,West,260,0.0,9.0,85,0.00,,,0.01,,2013-01-20 03:57:00,
2013-01-19 22:04:00,43.0,39.0,30.23,West,260,0.0,9.0,85,0.00,,,0.01,,2013-01-20 04:04:00,
2013-01-19 22:14:00,43.0,39.0,30.23,West,260,0.0,9.0,85,0.00,,,0.01,,2013-01-20 04:14:00,
2013-01-19 22:25:00,43.0,39.0,30.23,West,260,0.0,9.0,86,0.00,,,0.01,,2013-01-20 04:25:00,
2013-01-19 22:35:00,42.0,38.0,30.23,West,260,0.0,9.0,87,0.00,,,0.01,,2013-01-20 04:35:00,
2013-01-19 22:44:00,42.0,38.0,30.23,West,260,0.0,9.0,87,0.00,,,0.01,,2013-01-20 04:44:00,
2013-01-19 23:04:00,42.0,39.0,30.23,West,260,0.0,9.0,88,0.00,,,0.01,,2013-01-20 05:04:00,
2013-01-19 23:12:00,42.0,39.0,30.23,West,260,0.0,9.0,88,0.00,,,0.01,,2013-01-20 05:12:00,
2013-01-19 23:22:00,41.0,38.0,30.22,West,260,0.0,9.0,88,0.00,,,0.01,,2013-01-20 05:22:00,
2013-01-19 23:32:00,41.0,38.0,30.22,West,260,0.0,9.0,88,0.00,,,0.01,,2013-01-20 05:32:00,
2013-01-19 23:42:00,41.0,38.0,30.22,West,260,0.0,9.0,88,0.00,,,0.01,,2013-01-20 05:42:00,
2013-01-19 23:53:00,41.0,38.0,30.23,West,260,0.0,9.0,89,0.00,,,0.01,,2013-01-20 05:53:00,